Weather in Shalkar

Kazakhstan     47°49′57″N   59°37′12″E
temp.,
°C
wind,
m/s
gust,
m/s
humid.,
%
clouds,
%
prec.,
mm/h
press.,
hPa
HPBL,
m
22 october, fri
fri2223:00+4sw594899 0.0 1025297
02:00+4sw81250100 0.0 1024855
05:00+2wsw91482100 1.1 1024938
08:00+3sw101792100 1.6 1024759
11:00+5wsw101675100 3.2 1024786
14:00+10wsw11144536 0.7 1024965
17:00+12wsw91338100 0.7 1023902
20:00+10sw7144269 0.0 1024411
23 october, sat
sat2323:00+9sw7144944 0.0 1025352
02:00+8sw7145858 0.0 1025314
05:00+8sw6136417 0.0 1026268
08:00+8sw612685 0.0 1026251
11:00+13sw7115316 0.0 1027534
14:00+16sw810375 0.0 10261036
17:00+16sw79285 0.0 1025960
20:00+13ssw59280 0.0 1026177
24 october, sun
sun2423:00+10ssw510530 0.0 1026226
02:00+8ssw510605 0.0 1026199
05:00+8ssw48635 0.0 1025165
08:00+7s48605 0.0 1025159
11:00+13ssw69415 0.0 1024488
14:00+16ssw78335 0.0 1022954
17:00+16ssw683445 0.0 1020850
20:00+12s594583 0.0 1021201
25 october, mon
mon2523:00+11s4852100 0.0 1020189
02:00+10s3448100 0.0 101883
05:00+10sse3445100 0.0 101750
08:00+9sse3550100 0.0 101672
11:00+13s4641100 0.0 1015360
14:00+16s5633100 0.0 1013786
17:00+16s453426 0.0 1011305
20:00+13s454180 0.0 101074
26 october, tue
tue2623:00+11ssw4849100 0.0 1009152
02:00+11wsw4743100 0.0 1008153
05:00+9w61080100 0.0 1009521
08:00+8w6784100 0.3 10091071
11:00+5wsw7990100 2.8 1010809
14:00+7wsw9106599 0.3 10101196
17:00+4sw91069100 0.4 10101002
20:00+2sw798499 0.1 1012672